West Coast Vancouver Island South: Past 24 Hour Conditions

 

Tofino Airport

03:00 AM PDT 31 October 2014
This table is a summary of hourly weather conditions for the past 24 hours.
Date / Time
(PDT)
Wind(knots) Conditions Visibility(km) Pressure(kPa) Air tempC) Relative humidity(%) Dew pointC)
31 October 2014
3:00 NE 4 N/A N/A 100.7 8 98 8
2:00 NNE 5 N/A N/A 100.7 8 98 8
1:00 NNE 5 N/A N/A 100.7 9 98 8
0:00 NNE 5 N/A N/A 100.7 8 99 8
30 October 2014
23:00 NNE 5 N/A N/A 100.8 9 98 9
22:00 NNE 4 N/A N/A 100.8 8 98 8
21:00 WNW 1 N/A N/A 100.7 9 97 9
20:00 ENE 3 N/A N/A 100.7 10 94 9
19:00 NE 1 N/A N/A 100.6 11 95 10
18:00 SSE 3 Mostly Cloudy 13 100.6 11 98 11
17:00 N 1 Mostly Cloudy 16 100.6 11 98 11
16:00 NE 3 Light Rain 10 100.6 11 97 11
15:00 NNE 3 Light Rain 5 100.6 12 96 11
14:00 NNW 2 Light Rain 5 100.6 11 94 11
13:00 W 4 Light Rain 8 100.7 13 92 11
12:00 WSW 7 Light Rain 8 100.7 14 96 13
11:00 SE 18 gust 31 Light Rain 8 100.6 13 95 13
10:00 ESE 16 gust 25 Light Rain 10 100.6 13 93 12
9:00 E 12 gust 18 Light Rain 10 100.6 12 92 11
8:00 E 10 gust 17 Light Rain 10 100.6 12 93 11
7:00 E 8 Light Rain 13 100.7 12 91 10
6:00 ESE 9 Light Rain 10 100.8 13 84 10
5:00 E 10 gust 16 N/A N/A 100.9 14 74 9
4:00 E 7 gust 16 N/A N/A 101.1 13 78 10
3:00 E 11 gust 21 N/A N/A 101.2 14 77 10
 
Map of Pacific - Georgia Basin marine weather areas Tsawwassen Ferry Terminal Sentry Shoal - 46131 Halibut Bank - 46146 La Perouse Bank - 46206 Discovery Island Esquimalt Harbour Kelp Reefs Malahat Race Rocks Lightstation Saturna Island Sheringham Point University of Victoria Victoria Gonzales Victoria Int'l Airport Ballenas Islands Campbell River Airport Comox Airport Entrance Island Fanny Island Nanaimo Airport Sisters Islets Estevan Point Tofino Airport Grief Point Powell River Airport Sechelt Point Atkinson Sand Heads Lightstation Vancouver Harbour Vancouver Int'l Airport West Vancouver Port Alberni Howe Sound - Pam Rocks Squamish Airport